This is the latest recevied weather packets stored in our database for station/object KA8OAD-10. If no packets are shown the sender has not sent any weather packets the latest 10 day(s).
| Time | Temp. | Humidity | Pressure | Rain* | Wind** | Luminosity | Snow |
|---|---|---|---|---|---|---|---|
| 1777660352 | 6.67° C | 91% | 1010.5 hPa | 1.27 mm | - | 125 W/m² | - |
| 1777658850 | 6.67° C | 91% | 1010.4 hPa | 1.27 mm | - | 49 W/m² | - |
| 1777658553 | 6.67° C | 91% | 1010.4 hPa | 1.27 mm | - | 46 W/m² | - |
| 1777657952 | 6.67° C | 91% | 1010.2 hPa | 1.27 mm | - | 76 W/m² | - |
| 1777657651 | 6.67° C | 91% | 1010.2 hPa | 1.27 mm | - | 97 W/m² | - |
| 1777657351 | 6.67° C | 91% | 1010.2 hPa | 1.27 mm | - | 74 W/m² | - |
| 1777657051 | 6.67° C | 91% | 1010.3 hPa | 1.27 mm | - | 86 W/m² | - |
| 1777656750 | 6.67° C | 90% | 1010.3 hPa | 0.76 mm | - | 65 W/m² | - |
| 1777656453 | 6.67° C | 90% | 1010.3 hPa | 0.76 mm | - | 69 W/m² | - |
| 1777655551 | 6.67° C | 90% | 1010.3 hPa | 0.51 mm | - | 51 W/m² | - |
| 1777655251 | 6.67° C | 90% | 1010.2 hPa | 0.25 mm | - | 47 W/m² | - |
| 1777654953 | 6.67° C | 90% | 1010.2 hPa | 0.51 mm | - | 32 W/m² | - |
| 1777654653 | 6.67° C | 90% | 1010.1 hPa | 0.51 mm | - | 32 W/m² | - |
| 1777654052 | 6.67° C | 90% | 1010.1 hPa | 0.51 mm | - | 30 W/m² | - |
| 1777653752 | 6.67° C | 90% | 1010.1 hPa | 0.76 mm | - | 42 W/m² | - |
| 1777653151 | 6.67° C | 90% | 1010.2 hPa | 0.76 mm | - | 65 W/m² | - |
| 1777652249 | 7.22° C | 90% | 1010.1 hPa | 0.76 mm | - | 53 W/m² | - |
| 1777651953 | 7.22° C | 90% | 1010.2 hPa | 1.27 mm | - | 42 W/m² | - |
| 1777651653 | 7.22° C | 90% | 1010.2 hPa | 1.27 mm | - | 74 W/m² | - |
| 1777651352 | 7.22° C | 90% | 1010.2 hPa | 0.76 mm | - | 58 W/m² | - |
| 1777651051 | 7.22° C | 90% | 1010.2 hPa | 1.27 mm | - | 40 W/m² | - |
| 1777650751 | 7.22° C | 90% | 1010.3 hPa | 0.76 mm | - | 47 W/m² | - |
| 1777650450 | 7.22° C | 90% | 1010.3 hPa | 0.76 mm | - | 44 W/m² | - |
| 1777649553 | 7.22° C | 90% | 1010.4 hPa | 1.27 mm | - | 49 W/m² | - |
| 1777649252 | 7.22° C | 90% | 1010.3 hPa | 1.27 mm | - | 44 W/m² | - |
* Rain latest hour (hover to see other rain measurements)
** Current wind speed in m/s (hover to see current wind gust speed)